Location: Unspecified
(47.9110°N, 14.3980°E)
Time: 21:48:05
(UTC+00:00)

Lacrosse 5 - Pass Details

Date: 06 August 2020
Orbit: 716 x 722 km, 57.0° (Epoch: 21 September)

Event Time Altitude Azimuth Distance (km) Brightness Sun altitude
Rises 19:57:59 0° 298° (WNW) 3,131 6.8 -13.0°
Reaches altitude 10° 20:00:36 10° 308° (NW) 2,210 5.9 -13.3°
Maximum altitude 20:05:10 32° 12° (NNE) 1,218 3.4 -13.8°
Drops below altitude 10° 20:09:45 10° 76° (ENE) 2,211 4.1 -14.4°
Enters shadow 20:10:51 - 81° (E) 2,590 4.4 -14.5°
